Wind_Speed
24 24 26 26 27 28 29 28 28 26 26 27 28 28 30 30 30 24 27 28 29 31 31 37 35 22 19 22 20 20 21 17 17 21 21 20 19 19 18 24 22 19 21 16
24 25 26 28 29 30 31 31 33 31 30 30 31 31 29 32 32 32 28 28 31 34 34 37 33 26 26 38 34 21 19 22 19 18 20 22 27 25 21 19 17 19 19 15
28 30 34 34 34 35 35 35 35 34 34 34 33 35 32 35 34 33 32 30 32 33 35 35 35 38 35 46 33 37 29 21 22 20 19 19 23 27 25 25 25 20 21 24
34 36 36 35 35 36 37 36 37 37 37 36 34 36 35 35 35 33 35 31 32 32 36 37 37 39 40 43 40 36 33 31 26 27 26 24 19 21 25 24 24 19 20 20
37 39 40 39 40 40 39 39 38 37 37 36 36 36 35 36 34 36 33 34 34 37 36 35 36 31 44 41 44 44 39 34 26 23 21 24 15 17 22 25 24 25 21 19
40 41 41 40 41 40 39 39 40 39 39 38 38 36 38 35 37 35 35 36 36 35 35 39 40 45 46 52 49 48 44 34 29 27 24 23 26 20 20 21 21 23 22 22
46 45 43 42 41 41 41 41 40 40 39 39 38 37 37 36 37 35 36 35 36 33 36 33 34 36 40 41 45 47 45 42 38 28 28 34 25 23 25 23 19 18 22 29
48 46 45 45 45 43 42 41 39 40 38 38 36 35 35 35 34 32 34 34 34 34 33 32 30 32 36 39 44 49 52 50 44 37 35 29 24 35 27 22 25 22 23 23
47 46 44 43 41 40 39 37 35 35 34 37 31 32 31 30 30 29 29 32 32 32 30 30 28 30 28 32 39 47 52 56 49 39 42 29 25 16 26 31 26 23 20 20
45 44 41 38 37 36 34 33 33 32 32 33 29 28 27 27 26 24 27 28 27 27 25 27 27 27 27 27 30 45 50 56 54 47 33 19 24 37 19 22 18 17 17 18
43 40 38 35 33 32 33 31 28 25 24 24 22 22 23 23 22 23 26 22 23 22 23 23 22 25 25 32 30 34 47 52 51 41 40 29 29 27 13 22 18 16 14 14
38 36 33 31 31 32 29 24 23 22 23 25 24 23 22 21 20 21 22 21 19 17 17 20 23 21 26 31 39 33 36 49 43 46 42 32 46 22 29 22 18 16 17 15
33 31 30 30 28 26 26 26 25 25 24 26 25 21 20 20 20 21 21 19 17 18 18 21 20 22 25 32 36 44 24 36 50 49 46 46 23 25 30 29 26 24 25 23
30 28 28 28 27 26 26 24 23 23 21 23 24 20 20 20 20 21 21 17 16 18 21 22 25 20 25 33 30 38 50 48 47 52 50 49 44 34 31 28 29 27 26 26
28 29 28 26 25 25 23 21 19 18 18 18 18 17 17 19 20 20 20 18 17 18 20 20 22 28 27 32 41 29 38 22 33 47 49 46 41 30 39 35 32 26 24 24
28 26 25 25 23 22 18 17 17 16 17 16 16 14 17 17 18 18 18 18 18 18 21 22 21 25 29 33 35 31 15 36 38 47 47 45 57 42 40 36 38 31 28 25
26 25 23 22 20 16 15 15 15 15 14 14 14 14 14 16 16 16 15 16 17 19 18 16 18 21 28 35 30 32 34 49 30 32 33 35 45 40 29 28 26 27 26 23
24 22 20 18 17 15 14 13 14 14 14 14 13 12 11 13 12 12 12 15 15 16 17 16 18 22 22 30 31 39 26 29 33 30 32 37 39 37 27 31 24 24 25 21
21 20 18 16 15 13 12 12 12 13 13 11 10 10 10 12 11 7 10 11 12 13 14 15 14 14 18 22 35 43 49 23 24 29 30 31 30 29 30 33 27 23 21 21
18 17 15 13 11 10 10 10 11 12 11 9 9 10 13 14 15 13 13 11 8 8 11 14 15 16 18 26 35 43 42 37 19 30 31 36 36 36 31 34 36 27 23 23
15 13 11 9 8 8 8 8 8 9 8 7 9 9 10 16 16 15 7 10 13 6 8 8 10 9 15 16 26 35 36 34 33 34 41 39 37 36 30 31 30 25 23 20
12 10 9 7 8 9 8 7 7 6 2 1 2 5 10 12 18 16 8 7 5 6 4 4 7 6 11 14 19 26 37 36 32 37 39 40 36 35 36 36 25 28 28 23
10 9 9 8 7 8 6 4 2 2 5 3 3 3 4 8 13 17 9 6 5 4 5 7 8 7 10 15 17 19 31 36 36 32 34 34 30 25 23 27 27 23 25 24
10 9 10 8 7 5 3 1 5 7 8 8 7 3 8 11 11 13 5 5 3 4 4 5 5 4 8 10 15 18 20 30 31 35 36 35 28 31 31 27 23 21 21 19
10 9 9 9 6 6 7 8 13 13 10 6 7 6 7 9 11 8 7 6 9 9 3 3 4 3 6 10 14 18 19 25 31 33 37 37 36 35 34 31 28 24 21 21
9 9 9 8 6 6 8 14 12 10 8 5 5 7 7 7 8 7 7 7 8 4 3 2 4 8 11 8 12 16 23 22 30 42 40 36 37 36 39 36 33 29 25 26
9 9 9 9 8 7 20 16 8 13 12 12 8 7 12 11 8 7 9 9 5 4 3 6 7 4 3 5 7 11 23 20 25 28 31 31 30 34 29 35 28 34 33 28
Wind_Direction
305 306 305 304 301 299 297 297 292 288 287 284 283 281 280 279 276 268 265 260 260 256 242 236 223 220 240 236 230 227 235 235 230 229 231 225 224 229 216 215 229 227 231 234
304 305 304 302 300 299 298 296 293 290 287 285 285 280 282 278 274 273 263 259 256 255 248 248 243 223 214 234 234 227 227 226 224 213 241 218 219 220 225 223 229 236 230 238
301 302 301 298 297 296 297 295 294 290 287 284 281 281 280 276 271 269 266 259 254 253 255 252 243 230 220 232 233 230 231 217 215 217 231 251 249 230 211 215 228 232 238 251
300 303 306 302 295 296 296 293 289 286 285 280 279 278 278 275 270 265 264 259 256 251 249 245 243 239 229 241 231 230 233 228 219 211 240 205 227 239 215 216 221 228 221 221
304 304 302 301 300 297 296 294 289 285 279 280 277 275 273 270 266 263 265 260 255 253 252 248 238 242 234 234 225 224 225 232 226 221 228 243 217 221 220 222 222 226 239 228
307 308 305 302 301 297 293 290 287 283 280 277 274 272 269 268 264 262 260 257 258 256 255 248 247 242 241 233 224 224 221 223 227 227 219 234 227 213 219 223 234 227 228 240
306 307 305 301 298 294 289 286 284 282 282 277 276 273 273 266 262 260 258 256 257 255 254 254 249 243 242 240 234 223 221 224 225 215 226 218 225 221 224 225 230 232 234 219
305 305 303 301 298 293 288 286 286 286 285 282 281 278 274 270 264 256 254 255 256 258 258 255 250 245 239 234 225 219 220 224 215 219 225 220 206 224 227 217 226 236 240 240
303 303 302 299 294 290 290 291 290 288 285 282 281 277 273 269 263 256 253 252 254 256 258 257 248 241 239 228 226 218 220 225 224 219 220 230 189 228 234 229 242 244 248 240
302 302 300 295 293 293 293 294 293 289 284 281 275 272 271 266 262 256 255 250 253 254 252 251 246 238 215 215 223 217 218 225 231 211 206 216 226 231 199 227 226 234 233 236
301 300 298 297 294 294 297 296 292 288 282 278 276 275 273 270 261 254 256 250 249 251 249 248 241 232 218 211 190 225 222 225 232 224 205 194 234 220 209 211 215 216 216 226
300 297 296 297 298 298 295 292 289 284 280 277 275 272 270 266 261 254 250 246 238 235 235 234 227 221 213 215 196 215 212 221 229 233 194 212 220 203 226 225 228 232 234 235
297 296 298 301 297 294 292 290 289 284 280 277 274 271 267 261 255 248 242 241 243 242 241 230 226 223 215 205 203 211 211 210 218 229 217 211 205 216 223 228 235 239 246 252
297 297 299 298 295 293 293 294 291 284 279 273 274 266 258 253 249 242 238 241 241 239 232 225 219 227 221 211 206 211 215 219 227 233 227 206 222 209 216 230 232 237 243 251
297 299 296 292 293 293 293 293 288 285 282 278 275 266 259 250 245 242 240 239 237 236 235 230 228 227 225 212 208 204 220 222 225 232 221 223 216 214 221 233 238 238 247 254
297 294 295 295 293 293 291 287 286 286 281 277 275 263 250 244 239 238 238 237 235 230 229 229 230 229 226 211 212 207 191 220 217 218 229 227 216 215 224 233 237 241 247 253
294 294 294 295 293 288 288 286 285 284 281 278 275 265 249 240 233 232 232 233 231 232 232 237 237 236 224 209 202 211 216 220 226 223 225 225 212 218 222 225 236 234 245 251
293 294 295 293 286 285 285 284 284 283 285 283 276 268 241 230 224 223 226 227 226 227 232 241 240 243 237 211 209 220 217 213 201 209 207 204 208 210 221 227 236 237 238 244
291 293 290 285 282 282 282 282 282 284 284 281 267 251 223 213 201 211 224 227 230 240 245 240 237 244 251 222 222 220 214 202 201 205 202 207 210 220 224 229 240 239 244 247
291 292 284 281 281 278 281 285 289 291 287 274 253 248 222 204 192 179 225 223 219 228 229 234 252 268 247 219 217 218 212 191 190 208 211 208 213 211 220 232 231 250 246 241
290 284 272 276 272 267 282 290 300 299 280 264 260 236 221 212 207 194 194 222 234 230 230 254 263 242 225 225 218 215 209 205 208 208 206 204 207 212 223 230 241 251 234 237
277 262 264 264 269 273 286 296 306 308 286 300 188 205 208 216 214 209 165 178 215 239 258 235 173 188 213 210 212 216 216 216 215 215 211 212 220 220 231 231 237 239 233 240
259 254 260 260 270 281 280 291 317 137 165 149 121 278 237 212 207 196 193 203 230 233 230 224 231 220 209 217 223 217 215 216 217 217 205 209 207 210 212 217 227 227 228 237
256 257 255 258 272 271 230 139 157 176 180 163 186 200 204 203 189 195 219 213 237 237 257 243 301 262 211 225 220 220 214 205 212 208 204 202 210 198 221 214 220 227 232 236
256 254 249 248 255 238 220 212 190 178 180 176 196 216 194 182 163 186 194 211 221 226 196 307 273 240 236 225 216 212 213 204 205 200 200 196 198 210 212 221 229 237 232 223
253 246 239 237 230 215 187 156 156 171 184 203 210 184 189 187 173 167 185 211 227 248 263 340 304 274 215 221 224 214 210 209 202 197 205 213 213 216 218 223 224 222 219 208
244 236 229 220 212 200 177 169 175 165 183 179 165 157 150 149 171 184 192 197 215 225 261 311 59 58 220 227 216 225 215 206 201 204 211 216 216 210 223 214 221 218 216 224
Height
5830 5828 5825 5823 5820 5819 5816 5814 5812 5811 5809 5809 5807 5806 5805 5804 5803 5806 5805 5805 5805 5805 5808 5809 5812 5819 5822 5822 5821 5824 5825 5828 5831 5835 5835 5836 5843 5844 5850 5854 5857 5859 5859 5861
5823 5821 5819 5816 5813 5811 5808 5807 5804 5803 5802 5800 5798 5796 5797 5795 5794 5793 5795 5796 5796 5795 5797 5799 5803 5809 5816 5807 5813 5817 5820 5820 5827 5831 5835 5834 5835 5840 5844 5850 5854 5855 5854 5860
5815 5813 5810 5807 5804 5801 5799 5797 5794 5793 5791 5790 5789 5785 5786 5783 5783 5783 5783 5785 5785 5786 5787 5789 5793 5796 5801 5797 5805 5804 5810 5815 5819 5828 5833 5833 5829 5830 5837 5844 5845 5850 5853 5848
5807 5803 5800 5797 5794 5791 5788 5786 5783 5780 5778 5777 5777 5775 5774 5773 5772 5772 5771 5774 5775 5776 5776 5778 5781 5786 5789 5789 5796 5800 5803 5806 5813 5817 5820 5820 5827 5825 5829 5835 5841 5842 5842 5848
5798 5793 5790 5787 5783 5780 5776 5774 5772 5770 5766 5765 5763 5762 5761 5761 5761 5760 5761 5762 5763 5763 5765 5769 5771 5776 5778 5781 5787 5790 5796 5798 5805 5810 5815 5816 5817 5824 5827 5830 5833 5836 5837 5835
5787 5783 5779 5775 5771 5767 5763 5761 5758 5755 5754 5752 5750 5749 5747 5748 5748 5749 5749 5749 5750 5752 5754 5753 5757 5758 5762 5766 5773 5779 5787 5793 5800 5803 5809 5811 5814 5819 5821 5824 5826 5829 5832 5835
5775 5771 5767 5762 5758 5755 5751 5748 5744 5743 5741 5738 5737 5736 5736 5735 5735 5736 5736 5738 5738 5741 5740 5744 5747 5749 5752 5757 5764 5773 5780 5786 5791 5797 5804 5795 5809 5814 5816 5818 5820 5822 5823 5823
5762 5758 5753 5749 5745 5741 5737 5734 5732 5730 5729 5726 5725 5724 5723 5723 5724 5726 5725 5726 5727 5728 5731 5733 5735 5739 5741 5745 5752 5761 5770 5774 5782 5788 5791 5791 5803 5801 5806 5808 5811 5813 5813 5814
5750 5745 5740 5736 5732 5728 5725 5722 5720 5718 5717 5714 5713 5712 5712 5712 5714 5716 5716 5716 5716 5719 5721 5722 5725 5728 5732 5737 5743 5752 5759 5763 5770 5779 5782 5785 5786 5795 5798 5800 5802 5804 5806 5807
5736 5732 5727 5723 5720 5717 5714 5711 5709 5707 5705 5702 5702 5701 5702 5703 5704 5705 5705 5706 5709 5710 5712 5713 5716 5719 5725 5731 5737 5741 5747 5751 5758 5771 5772 5770 5784 5780 5789 5796 5801 5798 5799 5801
5724 5720 5716 5712 5709 5706 5704 5701 5698 5698 5696 5694 5694 5693 5694 5694 5695 5696 5696 5700 5701 5702 5704 5707 5708 5710 5716 5722 5730 5735 5741 5745 5749 5762 5769 5777 5766 5777 5788 5787 5789 5791 5793 5795
5712 5709 5705 5702 5700 5697 5694 5693 5691 5690 5689 5687 5686 5686 5686 5687 5688 5689 5690 5692 5694 5695 5698 5699 5701 5705 5709 5715 5721 5726 5730 5738 5748 5753 5762 5768 5766 5774 5779 5781 5783 5785 5788 5789
5702 5698 5696 5693 5691 5688 5686 5684 5683 5682 5681 5678 5678 5679 5679 5679 5680 5681 5683 5685 5687 5688 5692 5694 5696 5699 5703 5705 5710 5719 5716 5727 5736 5741 5750 5754 5759 5765 5772 5774 5777 5779 5781 5783
5692 5689 5687 5685 5682 5679 5677 5676 5675 5673 5672 5670 5670 5671 5671 5672 5673 5675 5677 5679 5681 5683 5684 5686 5690 5692 5695 5700 5698 5705 5713 5717 5727 5734 5742 5749 5756 5756 5764 5768 5771 5773 5775 5777
5684 5681 5679 5676 5674 5672 5670 5668 5667 5666 5666 5665 5664 5664 5664 5665 5667 5669 5671 5673 5674 5676 5678 5681 5683 5685 5688 5693 5695 5697 5709 5709 5719 5725 5735 5740 5744 5751 5757 5762 5764 5765 5767 5770
5676 5673 5671 5669 5667 5664 5663 5662 5661 5660 5659 5659 5658 5659 5658 5660 5661 5663 5665 5666 5668 5671 5672 5674 5677 5679 5682 5686 5690 5700 5694 5699 5706 5712 5723 5733 5739 5743 5749 5756 5758 5760 5761 5763
5668 5666 5663 5662 5660 5658 5658 5658 5656 5655 5654 5654 5653 5653 5654 5655 5657 5658 5660 5661 5664 5665 5668 5670 5671 5673 5674 5680 5688 5693 5693 5693 5702 5710 5716 5723 5731 5737 5745 5750 5752 5754 5756 5757
5661 5660 5657 5656 5654 5653 5653 5652 5651 5650 5650 5649 5649 5649 5651 5651 5653 5655 5656 5658 5660 5663 5665 5667 5668 5668 5669 5677 5684 5679 5678 5685 5691 5701 5709 5717 5724 5733 5738 5742 5746 5748 5749 5751
5655 5653 5652 5650 5649 5649 5648 5648 5647 5646 5647 5645 5645 5646 5648 5649 5651 5653 5655 5656 5659 5660 5661 5663 5664 5665 5666 5671 5672 5671 5675 5685 5691 5697 5704 5711 5719 5726 5731 5735 5740 5743 5744 5746
5648 5648 5647 5646 5646 5645 5645 5644 5644 5642 5642 5642 5643 5643 5644 5647 5649 5650 5655 5655 5655 5657 5658 5660 5661 5661 5660 5661 5663 5668 5674 5682 5677 5690 5700 5706 5712 5719 5725 5730 5734 5737 5738 5741
5644 5643 5643 5643 5642 5642 5642 5641 5641 5640 5639 5639 5640 5641 5642 5645 5647 5649 5652 5652 5653 5655 5656 5656 5656 5657 5657 5658 5661 5666 5674 5680 5684 5689 5694 5700 5709 5715 5720 5725 5729 5732 5734 5735
5640 5640 5640 5640 5640 5639 5640 5639 5639 5638 5639 5639 5639 5640 5641 5643 5645 5648 5651 5651 5653 5653 5653 5654 5654 5655 5656 5657 5659 5664 5670 5676 5681 5687 5693 5698 5705 5710 5715 5720 5724 5725 5728 5730
5636 5637 5637 5638 5638 5637 5638 5638 5638 5639 5640 5639 5639 5640 5641 5642 5645 5647 5649 5650 5652 5652 5652 5652 5652 5653 5655 5656 5658 5660 5663 5670 5676 5681 5688 5693 5700 5705 5709 5714 5717 5718 5721 5725
5634 5634 5635 5635 5635 5635 5636 5637 5638 5639 5640 5639 5639 5640 5641 5642 5645 5647 5648 5650 5651 5652 5651 5651 5651 5650 5652 5653 5654 5656 5660 5665 5671 5675 5682 5689 5696 5701 5705 5708 5711 5713 5717 5720
5631 5631 5632 5632 5633 5633 5633 5634 5636 5637 5638 5639 5640 5640 5642 5643 5646 5648 5650 5651 5651 5651 5652 5651 5650 5650 5650 5651 5653 5655 5657 5661 5667 5671 5678 5684 5689 5694 5699 5703 5706 5709 5712 5716
5627 5628 5629 5630 5630 5631 5632 5633 5635 5637 5639 5640 5640 5641 5643 5645 5647 5648 5649 5650 5651 5652 5651 5650 5649 5648 5648 5650 5651 5653 5656 5659 5663 5669 5673 5679 5685 5689 5694 5697 5701 5704 5708 5711
5624 5625 5626 5627 5629 5630 5632 5633 5635 5636 5638 5639 5641 5642 5644 5646 5647 5648 5649 5650 5651 5651 5650 5651 5649 5649 5649 5650 5650 5651 5653 5656 5661 5666 5671 5675 5680 5686 5689 5692 5697 5699 5702 5705